Regional Weather Roundup
Issued by NWS Memphis, TN

Home | Current Version | Previous Version | Text Only | Print | Product List | Glossary On
Versions: 1 2 3 4 5 6 7 8 9 10 11 12 13 14 15 16 17 18 19 20 21 22 23 24 25 26 27 28 29 30 31 32 33 34 35 36 37 38 39 40 41 42 43 44 45 46 47 48 49 50
363
ASUS44 KMEG 180210
RWRMEG
MEMPHIS CWA HOURLY WEATHER ROUNDUP
NATIONAL WEATHER SERVICE MEMPHIS TN
800 PM CST SAT FEB 17 2018

...WEST TENNESSEE...

CITY           SKY/WX    TMP DP  RH WIND       PRES   REMARKS
MEMPHIS INTL   NOT AVBL
NWS MEMPHIS      N/A     45 N/A N/A MISG        N/A
JACKSON        NOT AVBL
COVINGTON      MOCLDY    43  41  93 CALM      30.24R
BOLIVAR        CLOUDY    46  43  87 NW6       30.21R
LEXINGTON      CLOUDY    46  43  87 NW7G15    30.21R
SELMER         CLOUDY    46  43  87 N8        30.20R
SAVANNAH       CLOUDY    48  45  87 NW3       30.21R
UNION CITY     PTCLDY    41  39  93 CALM      30.22R
PARIS          MOCLDY    43  41  93 CALM      30.20R
HUNTINGDON     CLOUDY    45  43  93 NW3       30.21R


...EASTERN ARKANSAS...

CITY           SKY/WX    TMP DP  RH WIND       PRES   REMARKS
JONESBORO      NOT AVBL
NEWPORT          N/A     43  41  93 CALM      30.24
PINE BLUFF     FAIR      48  45  89 CALM      30.23R


...NORTH MISSISSIPPI...

CITY           SKY/WX    TMP DP  RH WIND       PRES   REMARKS
TUPELO         MOCLDY    48  44  86 NW7       30.22R
OXFORD         CLOUDY    46  45  93 CALM      30.24R
BATESVILLE       N/A    N/A N/A N/A MISG        N/A
OLIVE BRANCH   CLOUDY    45  45 100 N6        30.22R
TUNICA           N/A     46  43  87 CALM      30.24S
CLARKSDALE     CLOUDY    48  48 100 CALM      30.24R
CORINTH        CLOUDY    48  45  87 NW10      30.21S
GREENWOOD      CLOUDY    49  47  93 N6        30.23R
COLUMBUS       LGT RAIN  51  51 100 NW8       30.20S
STARKVILLE     LGT RAIN  50  48  93 N7        30.22R
GOLDEN TRIANGL LGT RAIN  51  49  92 NW9       30.21R


...SOUTHEAST MISSOURI...

CITY           SKY/WX    TMP DP  RH WIND       PRES   REMARKS
KENNETT        FAIR      41  41 100 NW3       30.22R
MALDEN         FAIR      39  37  93 CALM      30.24R
WEST PLAINS    CLEAR     36  34  92 SW3       30.21R
POPLAR BLUFF   FAIR      40  39  97 SW5       30.22R
CAPE GIRARDEAU FAIR      38  36  92 CALM      30.21R


...NORTHWEST ALABAMA...

CITY           SKY/WX    TMP DP  RH WIND       PRES   REMARKS


...MIDDLE TENNESSEE...

CITY           SKY/WX    TMP DP  RH WIND       PRES   REMARKS
COLUMBIA       CLOUDY    46  46 100 NW3       30.19R


...WESTERN KENTUCKY...

CITY           SKY/WX    TMP DP  RH WIND       PRES   REMARKS
FORT CAMPBELL  CLOUDY    45  43  94 W13       30.20


...CENTRAL ARKANSAS...

CITY           SKY/WX    TMP DP  RH WIND       PRES   REMARKS


SKY/WX REPORTED AS FAIR MEANS FEW OR NO CLOUDS BELOW
12 THOUSAND FEET.





USA.gov is the U.S. government's official web portal to all federal, state and local government web resources and services.